TELSTAR 3D R/B(PAM-D), 15837

Orbit data source: Space-Track

TELSTAR 3D R/B(PAM-D), 15837 is space debris in HEO originally from a launch on Mon, 17 Jun 1985 UTC launched from the Air Force Eastern Test Range (AFETR). Debris objects in space refer to the collection of defunct objects orbiting the Earth. Examples of debris include non-operational satellites, rocket bodies, and fragments generated from explosions, collisions, or faulty payload assembly.

Loading next visibility...
Identifier
15837, 1985-048H
Orbit
HEO
Country
Flag of USUS
Related business
Manufacturer
Thiokol/TE
Mission
Spacecraft
Bus & Motor
STAR 48, Unknown motor
Mass
132 kg wet, 132 kg dry
Launch date (UTC)
1985-06-17 (41 years ago)
Launch vehicle
Unknown
Launch site
Air Force Eastern Test Range (AFETR)
Object type
Payload
Rocket body
Debris
Shape & HBR
Unknown
Radar Cross Section
Large (>1 m²)

Expand to show TLE details & history
Last TLE update: 1 day ago

TLE from 1 day ago
0 TELSTAR 3D R/B(PAM-D)
1 15837U 85048H   26093.91087757  .00000760  00000-0  20510-2 0  9996
2 15837  25.8699 331.6842 7214025   8.3971 359.2174  2.29281744282452
Epoch: 2026-04-03T21:51Z
TLE epoch observation values (Epoch: 2026-04-03T21:51:39.822Z)
Latitude
-0.0006°
Longitude
171.52802°
Altitude
407.317 km
Speed
10.053 km/s
True Right ascension
22h 06m 43s
True Declination
0° 00' 02"
Sunlit
Object was in daylight at epoch
Visualization orbit readout
Latitude
Unknown
Longitude
Unknown
Altitude
Unknown
Speed
Unknown
Apparent Right ascension
Unknown
Apparent Declination
Unknown
Sunlit
N/A
Visualization observer readout
Local Sidereal Time
07:44:03
Azimuth
Unknown
Elevation
Unknown
Doppler factor
Unknown
Orbital elements
Apogee altitude
35,447.376 km
Perigee altitude
391.043 km
Semi-major axis
24,297.346 km
Eccentricity
0.7214
Inclination
25.8699°
RAAN
331.6842°
Arg. of periapsis
8.3971°
True anomaly
353.03186°
Mean anomaly
359.2174°
Eccentric anomaly
357.19383°
Mean motion
0.57307 °/min
Orbital period
628.2 mins
BSTAR
0.002051
Loading maneuver chart data...
Computing Atmospheric mass density...
Loading historical data...
Loading historical data...
Loading historical data...
Loading historical data...
Loading historical data...
Loading historical data...
Loading historical data...

Documentation

Showing up to 5 results
|